BEIDOU-3 M14

Last updated on Sat Apr 13 2024 01:02:27 GMT+0100 (British Summer Time)

1 43623U 18072B 24103.09849733 -.00000007 00000+0 00000+0 0 9995 2 43623 55.9449 89.0757 0006756 317.7699 42.1622 1.86231342 37825
UTC large
Height (km)
Speed (km/s)
/
Latitude / Longitude
Inclination (degrees)
Orbital Period (minutes)
Azimuth
Elevation
Range (km)
Doppler Factor

Next 0 passes for location: London (51.5072 / 0.1276)

Sorry there are no passes over London.